| time (UTC) | temp C | wind direction | speed KPH | gust KPH | rain 1hr cm | rain 24hr cm | rain mn cm | humidity % | barometer mb |
| 20260508071505 | 41 | 270 | 0.0 | 4.8 | 0.00 | 0.00 | 0.00 | 22 | 1006.1 |
| 20260508070918 | 42 | 315 | 0.0 | 4.8 | 0.00 | 0.00 | 0.00 | 22 | 1006.2 |
| 20260508070331 | 42 | 315 | 0.0 | 3.2 | 0.00 | 0.00 | 0.00 | 22 | 1006.3 |
| 20260508065744 | 42 | 0 | 0.0 | 4.8 | 0.00 | 0.00 | 0.00 | 22 | 1006.2 |
| 20260508065157 | 42 | 270 | 0.0 | 4.8 | 0.00 | 0.00 | 0.00 | 22 | 1006.2 |
| 20260508064610 | 42 | 315 | 0.0 | 4.8 | 0.00 | 0.00 | 0.00 | 22 | 1006.4 |
| 20260508064023 | 42 | 180 | 0.0 | 6.4 | 0.00 | 0.00 | 0.00 | 22 | 1006.5 |
| 20260508063436 | 42 | 45 | 0.0 | 6.4 | 0.00 | 0.00 | 0.00 | 22 | 1006.6 |
| 20260508062849 | 42 | 0 | 0.0 | 4.8 | 0.00 | 0.00 | 0.00 | 22 | 1006.5 |
| 20260508062305 | 42 | 0 | 0.0 | 4.8 | 0.00 | 0.00 | 0.00 | 22 | 1006.5 |
| 20260508061715 | 42 | 225 | 0.0 | 4.8 | 0.00 | 0.00 | 0.00 | 22 | 1006.6 |
| 20260508061128 | 42 | 315 | 0.0 | 4.8 | 0.00 | 0.00 | 0.00 | 21 | 1006.6 |
| 20260508060541 | 42 | 225 | 0.0 | 4.8 | 0.00 | 0.00 | 0.00 | 21 | 1006.8 |
| 20260508055954 | 42 | 180 | 0.0 | 4.8 | 0.00 | 0.00 | 0.00 | 21 | 1006.7 |
| 20260508055407 | 42 | 315 | 0.0 | 3.2 | 0.00 | 0.00 | 0.00 | 21 | 1006.8 |
| 20260508054820 | 42 | 315 | 0.0 | 3.2 | 0.00 | 0.00 | 0.00 | 21 | 1006.9 |
| 20260508054233 | 42 | 0 | 0.0 | 3.2 | 0.00 | 0.00 | 0.00 | 21 | 1006.8 |
| 20260508053646 | 42 | 315 | 0.0 | 4.8 | 0.00 | 0.00 | 0.00 | 21 | 1006.9 |
| 20260508053059 | 42 | 270 | 0.0 | 4.8 | 0.00 | 0.00 | 0.00 | 21 | 1007.0 |
| 20260508052512 | 42 | 270 | 0.0 | 4.8 | 0.00 | 0.00 | 0.00 | 21 | 1007.0 |
| 20260508051925 | 42 | 45 | 0.0 | 4.8 | 0.00 | 0.00 | 0.00 | 20 | 1007.2 |
| 20260508051338 | 42 | 0 | 0.0 | 4.8 | 0.00 | 0.00 | 0.00 | 20 | 1007.2 |
| 20260508050751 | 42 | 225 | 0.0 | 4.8 | 0.00 | 0.00 | 0.00 | 20 | 1007.3 |
| 20260508050203 | 42 | 0 | 0.0 | 3.2 | 0.00 | 0.00 | 0.00 | 20 | 1007.3 |
| 20260508045616 | 42 | 180 | 0.0 | 4.8 | 0.00 | 0.00 | 0.00 | 20 | 1007.3 |
| 20260508045029 | 42 | 180 | 0.0 | 4.8 | 0.00 | 0.00 | 0.00 | 20 | 1007.4 |
| 20260508044442 | 42 | 315 | 0.0 | 3.2 | 0.00 | 0.00 | 0.00 | 21 | 1007.4 |
| 20260508043855 | 42 | 0 | 0.0 | 4.8 | 0.00 | 0.00 | 0.00 | 21 | 1007.5 |
| 20260508043308 | 42 | 180 | 0.0 | 4.8 | 0.00 | 0.00 | 0.00 | 21 | 1007.6 |
| 20260508042721 | 42 | 315 | 0.0 | 4.8 | 0.00 | 0.00 | 0.00 | 22 | 1007.6 |
| 20260508042134 | 42 | 225 | 0.0 | 4.8 | 0.00 | 0.00 | 0.00 | 22 | 1007.7 |
| 20260508041547 | 42 | 225 | 0.0 | 8.0 | 0.00 | 0.00 | 0.00 | 22 | 1007.8 |
| 20260508041000 | 42 | 45 | 0.0 | 8.0 | 0.00 | 0.00 | 0.00 | 22 | 1007.8 |
| 20260508040413 | 42 | 270 | 0.0 | 4.8 | 0.00 | 0.00 | 0.00 | 23 | 1007.9 |
| 20260508035826 | 42 | 315 | 0.0 | 4.8 | 0.00 | 0.00 | 0.00 | 23 | 1007.9 |
| 20260508035239 | 42 | 0 | 0.0 | 3.2 | 0.00 | 0.00 | 0.00 | 23 | 1008.0 |
| 20260508034652 | 42 | 180 | 0.0 | 4.8 | 0.00 | 0.00 | 0.00 | 23 | 1008.1 |
| 20260508034105 | 41 | 225 | 0.0 | 4.8 | 0.00 | 0.00 | 0.00 | 24 | 1008.1 |
| 20260508033518 | 41 | 180 | 0.0 | 4.8 | 0.00 | 0.00 | 0.00 | 24 | 1008.0 |
| 20260508032931 | 41 | 0 | 0.0 | 4.8 | 0.00 | 0.00 | 0.00 | 24 | 1008.2 |
| 20260508032344 | 41 | 315 | 0.0 | 3.2 | 0.00 | 0.00 | 0.00 | 24 | 1008.1 |
| 20260508031757 | 41 | 225 | 0.0 | 3.2 | 0.00 | 0.00 | 0.00 | 24 | 1008.2 |
| 20260508031210 | 41 | 270 | 0.0 | 3.2 | 0.00 | 0.00 | 0.00 | 25 | 1008.3 |
| 20260508030623 | 41 | 270 | 0.0 | 3.2 | 0.00 | 0.00 | 0.00 | 25 | 1008.3 |
| 20260508030036 | 40 | 315 | 0.0 | 3.2 | 0.00 | 0.00 | 0.00 | 25 | 1008.6 |
| 20260508025449 | 40 | 45 | 0.0 | 4.8 | 0.00 | 0.00 | 0.00 | 25 | 1008.6 |
| 20260508024902 | 40 | 315 | 0.0 | 4.8 | 0.00 | 0.00 | 0.00 | 25 | 1008.8 |
| 20260508024315 | 40 | 315 | 0.0 | 4.8 | 0.00 | 0.00 | 0.00 | 25 | 1008.7 |
| 20260508023728 | 40 | 225 | 0.0 | 4.8 | 0.00 | 0.00 | 0.00 | 25 | 1008.8 |
| 20260508023141 | 40 | 315 | 0.0 | 4.8 | 0.00 | 0.00 | 0.00 | 25 | 1008.7 |
| 20260508022554 | 40 | 0 | 0.0 | 4.8 | 0.00 | 0.00 | 0.00 | 25 | 1008.8 |
| 20260508022007 | 40 | 270 | 0.0 | 4.8 | 0.00 | 0.00 | 0.00 | 25 | 1009.0 |
| 20260508021420 | 40 | 45 | 0.0 | 3.2 | 0.00 | 0.00 | 0.00 | 25 | 1009.0 |
| 20260508020833 | 40 | 270 | 0.0 | 4.8 | 0.00 | 0.00 | 0.00 | 25 | 1009.0 |
| 20260508020245 | 40 | 315 | 0.0 | 4.8 | 0.00 | 0.00 | 0.00 | 26 | 1009.0 |
| 20260508015659 | 40 | 315 | 0.0 | 3.2 | 0.00 | 0.00 | 0.00 | 26 | 1009.1 |
| 20260508015112 | 40 | 225 | 0.0 | 3.2 | 0.00 | 0.00 | 0.00 | 26 | 1009.1 |
| 20260508014524 | 40 | 45 | 0.0 | 4.8 | 0.00 | 0.00 | 0.00 | 26 | 1009.1 |
| 20260508013938 | 40 | 315 | 0.0 | 1.6 | 0.00 | 0.00 | 0.00 | 27 | 1009.1 |
| 20260508013351 | 40 | 0 | 0.0 | 3.2 | 0.00 | 0.00 | 0.00 | 27 | 1009.1 |
| 20260508012803 | 40 | 270 | 0.0 | 4.8 | 0.00 | 0.00 | 0.00 | 28 | 1009.1 |
| 20260508012216 | 39 | 180 | 0.0 | 4.8 | 0.00 | 0.00 | 0.00 | 27 | 1009.1 |
| 20260508011629 | 39 | 270 | 0.0 | 4.8 | 0.00 | 0.00 | 0.00 | 28 | 1009.0 |
| 20260508011042 | 38 | 90 | 0.0 | 4.8 | 0.00 | 0.00 | 0.00 | 28 | 1009.0 |
| 20260508010455 | 38 | 225 | 0.0 | 3.2 | 0.00 | 0.00 | 0.00 | 29 | 1009.1 |
| 20260508005908 | 38 | 180 | 0.0 | 3.2 | 0.00 | 0.00 | 0.00 | 30 | 1009.2 |
| 20260508005321 | 37 | 0 | 0.0 | 3.2 | 0.00 | 0.00 | 0.00 | 31 | 1009.2 |
| 20260508004734 | 37 | 315 | 0.0 | 3.2 | 0.00 | 0.00 | 0.00 | 32 | 1009.1 |
| 20260508004147 | 37 | 315 | 0.0 | 4.8 | 0.00 | 0.00 | 0.00 | 32 | 1009.1 |
| 20260508003600 | 36 | 0 | 0.0 | 4.8 | 0.00 | 0.00 | 0.00 | 34 | 1008.8 |
| 20260508003013 | 36 | 315 | 0.0 | 4.8 | 0.00 | 0.00 | 0.00 | 35 | 1008.8 |
| 20260508002426 | 36 | 0 | 0.0 | 3.2 | 0.00 | 0.00 | 0.00 | 36 | 1008.9 |
| 20260508001839 | 35 | 45 | 0.0 | 3.2 | 0.00 | 0.00 | 0.00 | 36 | 1008.7 |
| 20260508001252 | 35 | 270 | 0.0 | 4.8 | 0.00 | 0.00 | 0.00 | 37 | 1008.9 |
| 20260508000705 | 35 | 270 | 0.0 | 1.6 | 0.00 | 0.00 | 0.00 | 37 | 1008.8 |
| 20260508000118 | 35 | 0 | 0.0 | 4.8 | 0.00 | 0.00 | 0.00 | 38 | 1008.8 |
| 20260507235531 | 35 | 45 | 0.0 | 3.2 | 0.00 | 0.00 | 0.00 | 39 | 1008.6 |
| 20260507234944 | 35 | 315 | 0.0 | 4.8 | 0.00 | 0.00 | 0.00 | 40 | 1008.5 |
| 20260507234359 | 35 | 45 | 0.0 | 4.8 | 0.00 | 0.00 | 0.00 | 41 | 1008.6 |
| 20260507233810 | 34 | 315 | 0.0 | 1.6 | 0.00 | 0.00 | 0.00 | 42 | 1008.5 |
| 20260507233223 | 33 | 45 | 0.0 | 3.2 | 0.00 | 0.00 | 0.00 | 42 | 1008.5 |
| 20260507232636 | 33 | 0 | 0.0 | 3.2 | 0.00 | 0.00 | 0.00 | 44 | 1008.5 |
| 20260507232049 | 33 | 45 | 0.0 | 3.2 | 0.00 | 0.00 | 0.00 | 44 | 1008.3 |
| 20260507231502 | 32 | 315 | 0.0 | 3.2 | 0.00 | 0.00 | 0.00 | 45 | 1008.3 |
| 20260507230915 | 32 | 0 | 0.0 | 1.6 | 0.00 | 0.00 | 0.00 | 46 | 1008.3 |
| 20260507230328 | 32 | 315 | 0.0 | 1.6 | 0.00 | 0.00 | 0.00 | 47 | 1008.1 |
| 20260507225741 | 32 | 315 | 0.0 | 1.6 | 0.00 | 0.00 | 0.00 | 47 | 1008.1 |
| 20260507225154 | 31 | 45 | 0.0 | 1.6 | 0.00 | 0.00 | 0.00 | 48 | 1008.0 |
| 20260507224607 | 31 | 315 | 0.0 | 1.6 | 0.00 | 0.00 | 0.00 | 48 | 1007.9 |
| 20260507224020 | 31 | 315 | 0.0 | 0.0 | 0.00 | 0.00 | 0.00 | 49 | 1008.0 |
| 20260507223433 | 31 | 315 | 0.0 | 0.0 | 0.00 | 0.00 | 0.00 | 49 | 1007.7 |
| 20260507222846 | 30 | 315 | 0.0 | 0.0 | 0.00 | 0.00 | 0.00 | 49 | 1007.6 |
| 20260507222258 | 30 | 0 | 0.0 | 0.0 | 0.00 | 0.00 | 0.00 | 49 | 1007.6 |
| 20260507221712 | 30 | 0 | 0.0 | 0.0 | 0.00 | 0.00 | 0.00 | 49 | 1007.7 |
| 20260507221124 | 30 | 0 | 0.0 | 0.0 | 0.00 | 0.00 | 0.00 | 49 | 1007.6 |
| 20260507220538 | 30 | 0 | 0.0 | 0.0 | 0.00 | 0.00 | 0.00 | 48 | 1007.6 |
| 20260507215950 | 30 | 270 | 0.0 | 0.0 | 0.00 | 0.00 | 0.00 | 48 | 1007.5 |
| 20260507215403 | 30 | 270 | 0.0 | 0.0 | 0.00 | 0.00 | 0.00 | 48 | 1007.4 |
| 20260507214816 | 30 | 315 | 0.0 | 0.0 | 0.00 | 0.00 | 0.00 | 48 | 1007.6 |
| 20260507214229 | 30 | 315 | 0.0 | 0.0 | 0.00 | 0.00 | 0.00 | 48 | 1007.4 |
| 20260507213642 | 30 | 315 | 0.0 | 0.0 | 0.00 | 0.00 | 0.00 | 48 | 1007.4 |
| 20260507213055 | 30 | 315 | 0.0 | 0.0 | 0.00 | 0.00 | 0.00 | 48 | 1007.5 |
| 20260507212508 | 30 | 315 | 0.0 | 0.0 | 0.00 | 0.00 | 0.00 | 48 | 1007.6 |
| 20260507211921 | 30 | 315 | 0.0 | 0.0 | 0.00 | 0.00 | 0.00 | 48 | 1007.6 |
| 20260507211334 | 30 | 0 | 0.0 | 0.0 | 0.00 | 0.00 | 0.00 | 48 | 1007.4 |
| 20260507210747 | 30 | 0 | 0.0 | 0.0 | 0.00 | 0.00 | 0.00 | 48 | 1007.4 |
| 20260507210200 | 30 | 0 | 0.0 | 0.0 | 0.00 | 0.00 | 0.00 | 47 | 1007.4 |
| 20260507205613 | 30 | 315 | 0.0 | 0.0 | 0.00 | 0.00 | 0.00 | 47 | 1007.4 |
| 20260507205026 | 30 | 315 | 0.0 | 0.0 | 0.00 | 0.00 | 0.00 | 47 | 1007.4 |
| 20260507204439 | 30 | 315 | 0.0 | 0.0 | 0.00 | 0.00 | 0.00 | 47 | 1007.4 |
| 20260507203852 | 30 | 225 | 0.0 | 0.0 | 0.00 | 0.00 | 0.00 | 47 | 1007.4 |
| 20260507203305 | 30 | 270 | 0.0 | 0.0 | 0.00 | 0.00 | 0.00 | 47 | 1007.3 |
| 20260507202718 | 30 | 270 | 0.0 | 0.0 | 0.00 | 0.00 | 0.00 | 47 | 1007.2 |
| 20260507202131 | 30 | 270 | 0.0 | 0.0 | 0.00 | 0.00 | 0.00 | 47 | 1007.3 |
| 20260507201544 | 30 | 270 | 0.0 | 0.0 | 0.00 | 0.00 | 0.00 | 47 | 1007.2 |
| 20260507200957 | 30 | 270 | 0.0 | 0.0 | 0.00 | 0.00 | 0.00 | 47 | 1007.1 |
| 20260507200410 | 30 | 270 | 0.0 | 0.0 | 0.00 | 0.00 | 0.00 | 47 | 1007.1 |
| 20260507195823 | 30 | 270 | 0.0 | 0.0 | 0.00 | 0.00 | 0.00 | 47 | 1007.1 |
| 20260507195236 | 30 | 315 | 0.0 | 0.0 | 0.00 | 0.00 | 0.00 | 47 | 1007.1 |
| 20260507194649 | 30 | 315 | 0.0 | 0.0 | 0.00 | 0.00 | 0.00 | 46 | 1007.1 |
| 20260507194102 | 30 | 315 | 0.0 | 0.0 | 0.00 | 0.00 | 0.00 | 47 | 1006.9 |
| 20260507193515 | 30 | 315 | 0.0 | 0.0 | 0.00 | 0.00 | 0.00 | 47 | 1007.1 |
| 20260507192928 | 30 | 315 | 0.0 | 0.0 | 0.00 | 0.00 | 0.00 | 46 | 1007.0 |
| 20260507192341 | 30 | 315 | 0.0 | 0.0 | 0.00 | 0.00 | 0.00 | 46 | 1006.9 |
| 20260507191754 | 30 | 315 | 0.0 | 0.0 | 0.00 | 0.00 | 0.00 | 46 | 1006.9 |
| 20260507191207 | 30 | 315 | 0.0 | 0.0 | 0.00 | 0.00 | 0.00 | 46 | 1006.9 |
| 20260507190620 | 30 | 315 | 0.0 | 0.0 | 0.00 | 0.00 | 0.00 | 46 | 1006.8 |
| 20260507190033 | 30 | 315 | 0.0 | 0.0 | 0.00 | 0.00 | 0.00 | 46 | 1006.6 |
| 20260507185446 | 30 | 315 | 0.0 | 0.0 | 0.00 | 0.00 | 0.00 | 46 | 1006.7 |
| 20260507184859 | 30 | 315 | 0.0 | 0.0 | 0.00 | 0.00 | 0.00 | 46 | 1006.8 |
| 20260507184312 | 30 | 0 | 0.0 | 0.0 | 0.00 | 0.00 | 0.00 | 46 | 1006.8 |
| 20260507183724 | 30 | 0 | 0.0 | 0.0 | 0.00 | 0.00 | 0.00 | 45 | 1006.8 |
| 20260507183138 | 30 | 0 | 0.0 | 0.0 | 0.00 | 0.00 | 0.00 | 45 | 1006.8 |
| 20260507182551 | 30 | 315 | 0.0 | 0.0 | 0.00 | 0.00 | 0.00 | 45 | 1006.8 |
| 20260507182004 | 30 | 225 | 0.0 | 0.0 | 0.00 | 0.00 | 0.00 | 45 | 1006.9 |
| 20260507181416 | 30 | 225 | 0.0 | 0.0 | 0.00 | 0.00 | 0.00 | 45 | 1006.9 |
| 20260507180829 | 30 | 225 | 0.0 | 0.0 | 0.00 | 0.00 | 0.00 | 45 | 1006.8 |
| 20260507180242 | 31 | 270 | 0.0 | 0.0 | 0.00 | 0.00 | 0.00 | 45 | 1006.8 |
| 20260507175655 | 31 | 270 | 0.0 | 0.0 | 0.00 | 0.00 | 0.00 | 45 | 1006.8 |
| 20260507175108 | 31 | 270 | 0.0 | 0.0 | 0.00 | 0.00 | 0.00 | 45 | 1006.8 |
| 20260507174521 | 31 | 270 | 0.0 | 0.0 | 0.00 | 0.00 | 0.00 | 45 | 1006.9 |
| 20260507173934 | 31 | 315 | 0.0 | 0.0 | 0.00 | 0.00 | 0.00 | 45 | 1007.0 |
| 20260507173347 | 31 | 0 | 0.0 | 0.0 | 0.00 | 0.00 | 0.00 | 45 | 1007.0 |
| 20260507172800 | 31 | 315 | 0.0 | 0.0 | 0.00 | 0.00 | 0.00 | 45 | 1007.0 |
| 20260507172213 | 31 | 315 | 0.0 | 0.0 | 0.00 | 0.00 | 0.00 | 45 | 1007.1 |
| 20260507171626 | 31 | 315 | 0.0 | 0.0 | 0.00 | 0.00 | 0.00 | 45 | 1007.2 |
| 20260507171039 | 31 | 315 | 0.0 | 0.0 | 0.00 | 0.00 | 0.00 | 45 | 1007.2 |
| 20260507170452 | 31 | 315 | 0.0 | 0.0 | 0.00 | 0.00 | 0.00 | 44 | 1007.1 |
| 20260507165905 | 31 | 270 | 0.0 | 0.0 | 0.00 | 0.00 | 0.00 | 44 | 1007.2 |
| 20260507165318 | 31 | 270 | 0.0 | 0.0 | 0.00 | 0.00 | 0.00 | 44 | 1007.1 |
| 20260507164731 | 31 | 270 | 0.0 | 0.0 | 0.00 | 0.00 | 0.00 | 44 | 1007.1 |
| 20260507164144 | 31 | 270 | 0.0 | 0.0 | 0.00 | 0.00 | 0.00 | 44 | 1007.0 |
| 20260507163557 | 31 | 315 | 0.0 | 0.0 | 0.00 | 0.00 | 0.00 | 44 | 1007.0 |
| 20260507163010 | 31 | 315 | 0.0 | 0.0 | 0.00 | 0.00 | 0.00 | 44 | 1007.0 |
| 20260507162423 | 31 | 315 | 0.0 | 0.0 | 0.00 | 0.00 | 0.00 | 44 | 1007.3 |
| 20260507161836 | 31 | 315 | 0.0 | 0.0 | 0.00 | 0.00 | 0.00 | 44 | 1007.3 |
| 20260507161249 | 31 | 315 | 0.0 | 0.0 | 0.00 | 0.00 | 0.00 | 43 | 1007.3 |
| 20260507160702 | 31 | 315 | 0.0 | 0.0 | 0.00 | 0.00 | 0.00 | 43 | 1007.3 |
| 20260507160115 | 31 | 315 | 0.0 | 0.0 | 0.00 | 0.00 | 0.00 | 43 | 1007.3 |
| 20260507155528 | 32 | 270 | 0.0 | 0.0 | 0.00 | 0.00 | 0.00 | 43 | 1007.3 |
| 20260507154941 | 32 | 270 | 0.0 | 0.0 | 0.00 | 0.00 | 0.00 | 43 | 1007.5 |
| 20260507154354 | 32 | 270 | 0.0 | 0.0 | 0.00 | 0.00 | 0.00 | 43 | 1007.5 |
| 20260507153807 | 32 | 270 | 0.0 | 0.0 | 0.00 | 0.00 | 0.00 | 43 | 1007.6 |
| 20260507153220 | 32 | 270 | 0.0 | 0.0 | 0.00 | 0.00 | 0.00 | 42 | 1007.7 |
| 20260507152633 | 32 | 270 | 0.0 | 0.0 | 0.00 | 0.00 | 0.00 | 42 | 1007.7 |
| 20260507152046 | 32 | 270 | 0.0 | 0.0 | 0.00 | 0.00 | 0.00 | 42 | 1007.8 |
| 20260507151459 | 32 | 270 | 0.0 | 0.0 | 0.00 | 0.00 | 0.00 | 42 | 1007.8 |
| 20260507150911 | 32 | 270 | 0.0 | 0.0 | 0.00 | 0.00 | 0.00 | 42 | 1007.9 |
| 20260507150325 | 32 | 270 | 0.0 | 0.0 | 0.00 | 0.00 | 0.00 | 42 | 1007.9 |
| 20260507145737 | 32 | 270 | 0.0 | 0.0 | 0.00 | 0.00 | 0.00 | 41 | 1007.9 |
| 20260507145150 | 32 | 270 | 0.0 | 0.0 | 0.00 | 0.00 | 0.00 | 41 | 1007.9 |
| 20260507144603 | 32 | 315 | 0.0 | 0.0 | 0.00 | 0.00 | 0.00 | 41 | 1007.9 |
| 20260507144016 | 32 | 315 | 0.0 | 0.0 | 0.00 | 0.00 | 0.00 | 41 | 1007.9 |
| 20260507143429 | 32 | 315 | 0.0 | 0.0 | 0.00 | 0.00 | 0.00 | 41 | 1007.9 |
| 20260507142842 | 32 | 315 | 0.0 | 0.0 | 0.00 | 0.00 | 0.00 | 40 | 1008.1 |
| 20260507141708 | 32 | 315 | 0.0 | 0.0 | 0.00 | 0.00 | 0.00 | 40 | 1007.9 |
| 20260507141121 | 32 | 315 | 0.0 | 0.0 | 0.00 | 0.00 | 0.00 | 40 | 1007.9 |
| 20260507140534 | 32 | 270 | 0.0 | 0.0 | 0.00 | 0.00 | 0.00 | 40 | 1007.9 |
| 20260507135947 | 32 | 270 | 0.0 | 0.0 | 0.00 | 0.00 | 0.00 | 40 | 1007.8 |
| 20260507135400 | 33 | 315 | 0.0 | 0.0 | 0.00 | 0.00 | 0.00 | 39 | 1007.9 |
| 20260507134813 | 33 | 0 | 0.0 | 0.0 | 0.00 | 0.00 | 0.00 | 39 | 1007.8 |
| 20260507134226 | 33 | 315 | 0.0 | 0.0 | 0.00 | 0.00 | 0.00 | 39 | 1007.8 |
| 20260507133639 | 33 | 315 | 0.0 | 0.0 | 0.00 | 0.00 | 0.00 | 39 | 1007.7 |
| 20260507133052 | 33 | 0 | 0.0 | 0.0 | 0.00 | 0.00 | 0.00 | 39 | 1007.8 |
| 20260507132505 | 33 | 45 | 0.0 | 0.0 | 0.00 | 0.00 | 0.00 | 38 | 1007.7 |
| 20260507131918 | 33 | 315 | 0.0 | 0.0 | 0.00 | 0.00 | 0.00 | 38 | 1007.8 |
| 20260507131331 | 33 | 315 | 0.0 | 0.0 | 0.00 | 0.00 | 0.00 | 38 | 1007.8 |
| 20260507130744 | 33 | 0 | 0.0 | 0.0 | 0.00 | 0.00 | 0.00 | 38 | 1007.6 |
| 20260507130157 | 33 | 0 | 0.0 | 1.6 | 0.00 | 0.00 | 0.00 | 38 | 1007.6 |
| 20260507125610 | 33 | 45 | 0.0 | 1.6 | 0.00 | 0.00 | 0.00 | 37 | 1007.7 |
| 20260507125023 | 33 | 45 | 0.0 | 1.6 | 0.00 | 0.00 | 0.00 | 37 | 1007.7 |
| 20260507124436 | 33 | 0 | 0.0 | 1.6 | 0.00 | 0.00 | 0.00 | 37 | 1007.7 |
| 20260507123849 | 33 | 0 | 0.0 | 1.6 | 0.00 | 0.00 | 0.00 | 37 | 1007.6 |
| 20260507123302 | 33 | 0 | 0.0 | 1.6 | 0.00 | 0.00 | 0.00 | 36 | 1007.7 |
| 20260507122715 | 34 | 45 | 0.0 | 0.0 | 0.00 | 0.00 | 0.00 | 36 | 1007.6 |
| 20260507122128 | 34 | 315 | 0.0 | 0.0 | 0.00 | 0.00 | 0.00 | 36 | 1007.5 |
| 20260507121541 | 34 | 0 | 0.0 | 0.0 | 0.00 | 0.00 | 0.00 | 36 | 1007.5 |
| 20260507120954 | 34 | 0 | 0.0 | 0.0 | 0.00 | 0.00 | 0.00 | 35 | 1007.5 |
| 20260507120407 | 34 | 0 | 0.0 | 0.0 | 0.00 | 0.00 | 0.00 | 35 | 1007.6 |
| 20260507115820 | 35 | 315 | 0.0 | 0.0 | 0.00 | 0.00 | 0.00 | 35 | 1007.6 |
| 20260507115233 | 35 | 270 | 0.0 | 0.0 | 0.00 | 0.00 | 0.00 | 35 | 1007.6 |
| 20260507114646 | 35 | 0 | 0.0 | 1.6 | 0.00 | 0.00 | 0.00 | 35 | 1007.6 |
| 20260507114058 | 35 | 315 | 0.0 | 1.6 | 0.00 | 0.00 | 0.00 | 34 | 1007.6 |
| 20260507113511 | 35 | 270 | 0.0 | 1.6 | 0.00 | 0.00 | 0.00 | 34 | 1007.5 |
| 20260507112925 | 35 | 270 | 0.0 | 0.0 | 0.00 | 0.00 | 0.00 | 34 | 1007.3 |
| 20260507112337 | 35 | 45 | 0.0 | 1.6 | 0.00 | 0.00 | 0.00 | 33 | 1007.2 |
| 20260507111750 | 35 | 0 | 0.0 | 3.2 | 0.00 | 0.00 | 0.00 | 33 | 1007.2 |
| 20260507111203 | 35 | 270 | 0.0 | 3.2 | 0.00 | 0.00 | 0.00 | 32 | 1007.1 |
| 20260507110617 | 35 | 270 | 0.0 | 3.2 | 0.00 | 0.00 | 0.00 | 32 | 1007.0 |
| 20260507110036 | 36 | 315 | 0.0 | 3.2 | 0.00 | 0.00 | 0.00 | 32 | 1006.9 |
| 20260507105443 | 36 | 270 | 0.0 | 3.2 | 0.00 | 0.00 | 0.00 | 31 | 1006.8 |
| 20260507104856 | 36 | 315 | 0.0 | 1.6 | 0.00 | 0.00 | 0.00 | 30 | 1006.9 |
| 20260507104310 | 36 | 225 | 0.0 | 1.6 | 0.00 | 0.00 | 0.00 | 29 | 1006.8 |
| 20260507103721 | 36 | 225 | 0.0 | 1.6 | 0.00 | 0.00 | 0.00 | 29 | 1006.9 |
| 20260507103134 | 36 | 270 | 0.0 | 1.6 | 0.00 | 0.00 | 0.00 | 29 | 1006.8 |
| 20260507102547 | 36 | 225 | 0.0 | 0.0 | 0.00 | 0.00 | 0.00 | 28 | 1006.5 |
| 20260507102000 | 36 | 225 | 0.0 | 1.6 | 0.00 | 0.00 | 0.00 | 28 | 1006.5 |
| 20260507101413 | 37 | 270 | 0.0 | 1.6 | 0.00 | 0.00 | 0.00 | 28 | 1006.5 |
| 20260507100826 | 37 | 270 | 0.0 | 0.0 | 0.00 | 0.00 | 0.00 | 28 | 1006.5 |
| 20260507100239 | 37 | 225 | 0.0 | 0.0 | 0.00 | 0.00 | 0.00 | 28 | 1006.4 |
| 20260507095652 | 37 | 270 | 0.0 | 1.6 | 0.00 | 0.00 | 0.00 | 27 | 1006.2 |
| 20260507095105 | 37 | 270 | 0.0 | 1.6 | 0.00 | 0.00 | 0.00 | 27 | 1006.2 |
| 20260507094518 | 37 | 225 | 0.0 | 1.6 | 0.00 | 0.00 | 0.00 | 27 | 1006.2 |
| 20260507093931 | 37 | 270 | 0.0 | 1.6 | 0.00 | 0.00 | 0.00 | 27 | 1006.2 |
| 20260507093344 | 38 | 270 | 0.0 | 1.6 | 0.00 | 0.00 | 0.00 | 27 | 1006.1 |
| 20260507092757 | 38 | 315 | 0.0 | 1.6 | 0.00 | 0.00 | 0.00 | 27 | 1006.1 |
| 20260507092210 | 38 | 315 | 0.0 | 3.2 | 0.00 | 0.00 | 0.00 | 26 | 1006.1 |
| 20260507091623 | 38 | 270 | 0.0 | 3.2 | 0.00 | 0.00 | 0.00 | 26 | 1006.1 |
| 20260507091036 | 38 | 225 | 0.0 | 1.6 | 0.00 | 0.00 | 0.00 | 26 | 1005.9 |
| 20260507090449 | 38 | 225 | 0.0 | 3.2 | 0.00 | 0.00 | 0.00 | 25 | 1005.9 |
| 20260507085902 | 38 | 225 | 0.0 | 3.2 | 0.00 | 0.00 | 0.00 | 25 | 1005.9 |
| 20260507085315 | 39 | 270 | 0.0 | 3.2 | 0.00 | 0.00 | 0.00 | 25 | 1005.9 |
| 20260507084728 | 39 | 315 | 0.0 | 1.6 | 0.00 | 0.00 | 0.00 | 24 | 1005.7 |
| 20260507084141 | 40 | 0 | 0.0 | 3.2 | 0.00 | 0.00 | 0.00 | 24 | 1005.8 |
| 20260507083554 | 40 | 225 | 0.0 | 1.6 | 0.00 | 0.00 | 0.00 | 23 | 1005.8 |
| 20260507083007 | 40 | 45 | 0.0 | 1.6 | 0.00 | 0.00 | 0.00 | 23 | 1005.6 |
| 20260507082420 | 40 | 270 | 0.0 | 1.6 | 0.00 | 0.00 | 0.00 | 23 | 1005.6 |
| 20260507081833 | 40 | 90 | 0.0 | 3.2 | 0.00 | 0.00 | 0.00 | 23 | 1005.6 |
| 20260507081245 | 40 | 225 | 0.0 | 3.2 | 0.00 | 0.00 | 0.00 | 23 | 1005.4 |
| 20260507080659 | 41 | 0 | 0.0 | 3.2 | 0.00 | 0.00 | 0.00 | 22 | 1005.5 |
| 20260507080112 | 41 | 270 | 0.0 | 3.2 | 0.00 | 0.00 | 0.00 | 22 | 1005.4 |
| 20260507075525 | 41 | 225 | 0.0 | 1.6 | 0.00 | 0.00 | 0.00 | 22 | 1005.4 |
| 20260507074937 | 41 | 225 | 0.0 | 3.2 | 0.00 | 0.00 | 0.00 | 22 | 1005.4 |
| 20260507074350 | 41 | 270 | 0.0 | 3.2 | 0.00 | 0.00 | 0.00 | 22 | 1005.5 |
| 20260507073803 | 42 | 225 | 0.0 | 4.8 | 0.00 | 0.00 | 0.00 | 21 | 1005.5 |
| 20260507073216 | 42 | 180 | 0.0 | 4.8 | 0.00 | 0.00 | 0.00 | 21 | 1005.4 |
| 20260507072629 | 42 | 225 | 0.0 | 4.8 | 0.00 | 0.00 | 0.00 | 21 | 1005.5 |
| 20260507072042 | 42 | 315 | 0.0 | 3.2 | 0.00 | 0.00 | 0.00 | 21 | 1005.6 |